Time,TemperatureF,DewpointF,PressureIn,WindDirection,WindDirectionDegrees,WindSpeedMPH,WindSpeedGustMPH,Humidity,HourlyPrecipIn,Conditions,Clouds,dailyrainin,SoftwareType,DateUTC
2013-03-19 00:03:00,36.0,32.5,30.30,SSE,151,1.0,5.0,87,0.00,,,0.01,meteohub,2013-03-18 10:03:00,
2013-03-19 00:08:00,36.0,32.5,30.31,SSE,155,1.0,5.0,87,0.00,,,0.01,meteohub,2013-03-18 10:08:00,
2013-03-19 00:13:00,36.0,32.5,30.31,South,174,1.0,3.0,87,0.00,,,0.01,meteohub,2013-03-18 10:13:00,
2013-03-19 00:18:00,35.8,32.4,30.31,South,174,1.0,2.0,87,0.00,,,0.01,meteohub,2013-03-18 10:18:00,
2013-03-19 00:23:00,35.8,32.4,30.31,SSE,155,1.0,2.0,87,0.00,,,0.01,meteohub,2013-03-18 10:23:00,
2013-03-19 00:29:00,35.8,32.0,30.31,SSE,157,0.0,2.0,86,0.00,,,0.01,meteohub,2013-03-18 10:29:00,
2013-03-19 00:34:00,35.8,32.0,30.31,SSE,157,0.0,2.0,86,0.00,,,0.01,meteohub,2013-03-18 10:34:00,
2013-03-19 00:39:00,35.6,31.5,30.30,SSE,155,0.0,1.0,85,0.00,,,0.01,meteohub,2013-03-18 10:39:00,
2013-03-19 00:45:00,35.4,31.3,30.31,SSE,155,0.0,1.0,85,0.00,,,0.01,meteohub,2013-03-18 10:45:00,
2013-03-19 00:50:00,35.6,32.2,30.31,WSW,248,0.0,0.0,87,0.00,,,0.01,meteohub,2013-03-18 10:50:00,
2013-03-19 00:55:00,35.4,32.2,30.31,West,263,1.0,0.0,88,0.00,,,0.01,meteohub,2013-03-18 10:55:00,
2013-03-19 01:00:00,35.4,32.2,30.31,West,264,0.0,2.0,88,0.00,,,0.01,meteohub,2013-03-18 11:00:00,
2013-03-19 01:05:00,35.4,32.2,30.31,West,264,0.0,2.0,88,0.00,,,0.01,meteohub,2013-03-18 11:05:00,
2013-03-19 01:10:00,35.6,32.2,30.31,West,264,0.0,2.0,87,0.00,,,0.01,meteohub,2013-03-18 11:10:00,
2013-03-19 01:15:00,35.8,32.0,30.31,WSW,239,0.0,0.0,86,0.00,,,0.01,meteohub,2013-03-18 11:15:00,
2013-03-19 01:21:00,35.8,31.6,30.31,WSW,239,0.0,0.0,85,0.00,,,0.01,meteohub,2013-03-18 11:21:00,
2013-03-19 01:26:00,35.8,32.0,30.31,WSW,245,0.0,0.0,86,0.00,,,0.01,meteohub,2013-03-18 11:26:00,
2013-03-19 01:31:00,35.8,31.6,30.31,WSW,243,0.0,0.0,85,0.00,,,0.01,meteohub,2013-03-18 11:31:00,
2013-03-19 01:36:00,35.8,32.0,30.31,WSW,240,1.0,2.0,86,0.00,,,0.01,meteohub,2013-03-18 11:36:00,
2013-03-19 01:42:00,35.8,31.6,30.30,SW,228,2.0,2.0,85,0.00,,,0.01,meteohub,2013-03-18 11:42:00,
2013-03-19 01:47:00,35.8,32.0,30.31,SSW,211,2.0,2.0,86,0.00,,,0.01,meteohub,2013-03-18 11:47:00,
2013-03-19 01:52:00,35.8,31.6,30.30,SW,221,1.0,2.0,85,0.00,,,0.01,meteohub,2013-03-18 11:52:00,
2013-03-19 01:57:00,35.8,32.0,30.30,SW,221,1.0,2.0,86,0.00,,,0.01,meteohub,2013-03-18 11:57:00,
2013-03-19 02:02:00,35.8,32.0,30.30,SW,221,1.0,2.0,86,0.00,,,0.01,meteohub,2013-03-18 12:02:00,
2013-03-19 02:07:00,35.8,31.6,30.30,SW,221,0.0,2.0,85,0.00,,,0.01,meteohub,2013-03-18 12:07:00,
2013-03-19 02:12:00,35.6,31.3,30.30,SW,221,0.0,1.0,84,0.00,,,0.01,meteohub,2013-03-18 12:12:00,
2013-03-19 02:17:00,35.6,31.3,30.30,SW,221,0.0,1.0,84,0.00,,,0.01,meteohub,2013-03-18 12:17:00,
2013-03-19 02:23:00,35.8,31.5,30.30,ESE,103,1.0,0.0,84,0.00,,,0.01,meteohub,2013-03-18 12:23:00,
2013-03-19 02:28:00,36.0,31.6,30.30,East,87,1.0,1.0,84,0.00,,,0.01,meteohub,2013-03-18 12:28:00,
2013-03-19 02:33:00,36.0,31.3,30.30,East,88,0.0,1.0,83,0.00,,,0.01,meteohub,2013-03-18 12:33:00,
2013-03-19 02:38:00,36.0,31.3,30.30,East,88,0.0,1.0,83,0.00,,,0.01,meteohub,2013-03-18 12:38:00,
2013-03-19 02:43:00,36.0,31.3,30.30,East,88,0.0,1.0,83,0.00,,,0.01,meteohub,2013-03-18 12:43:00,
2013-03-19 02:48:00,36.0,31.3,30.30,East,88,0.0,0.0,83,0.00,,,0.01,meteohub,2013-03-18 12:48:00,
2013-03-19 02:54:00,36.0,31.3,30.30,East,88,0.0,0.0,83,0.00,,,0.01,meteohub,2013-03-18 12:54:00,
2013-03-19 02:59:00,36.0,31.3,30.31,East,88,0.0,0.0,83,0.00,,,0.01,meteohub,2013-03-18 12:59:00,
2013-03-19 03:04:00,35.8,31.5,30.31,East,88,0.0,0.0,84,0.00,,,0.01,meteohub,2013-03-18 13:04:00,
2013-03-19 03:09:00,35.8,31.5,30.31,East,88,0.0,0.0,84,0.00,,,0.01,meteohub,2013-03-18 13:09:00,
2013-03-19 03:14:00,35.8,31.5,30.31,East,88,0.0,0.0,84,0.00,,,0.01,meteohub,2013-03-18 13:14:00,
2013-03-19 03:19:00,35.6,31.3,30.31,East,87,0.0,0.0,84,0.00,,,0.01,meteohub,2013-03-18 13:19:00,
2013-03-19 03:24:00,35.4,31.1,30.31,East,88,0.0,0.0,84,0.00,,,0.01,meteohub,2013-03-18 13:24:00,
2013-03-19 03:29:00,35.4,31.3,30.31,East,88,0.0,0.0,85,0.00,,,0.01,meteohub,2013-03-18 13:29:00,
2013-03-19 03:35:00,35.6,31.3,30.31,East,88,0.0,0.0,84,0.00,,,0.01,meteohub,2013-03-18 13:35:00,
2013-03-19 03:40:00,35.4,31.3,30.31,East,88,0.0,0.0,85,0.00,,,0.01,meteohub,2013-03-18 13:40:00,
2013-03-19 03:45:00,35.1,30.9,30.31,East,88,0.0,0.0,85,0.00,,,0.01,meteohub,2013-03-18 13:45:00,
2013-03-19 03:50:00,34.5,30.7,30.31,East,88,0.0,0.0,86,0.00,,,0.01,meteohub,2013-03-18 13:50:00,
2013-03-19 03:55:00,34.7,31.8,30.31,East,96,2.0,2.0,89,0.00,,,0.01,meteohub,2013-03-18 13:55:00,
2013-03-19 04:00:00,34.7,32.4,30.31,East,95,2.0,3.0,91,0.00,,,0.01,meteohub,2013-03-18 14:00:00,
2013-03-19 04:05:00,34.9,32.2,30.31,East,92,3.0,4.0,90,0.00,,,0.01,meteohub,2013-03-18 14:05:00,
2013-03-19 04:11:00,35.1,32.2,30.30,East,91,3.0,4.0,89,0.00,,,0.01,meteohub,2013-03-18 14:11:00,
2013-03-19 04:16:00,35.2,32.0,30.31,East,90,4.0,4.0,88,0.00,,,0.01,meteohub,2013-03-18 14:16:00,
2013-03-19 04:21:00,35.4,32.0,30.31,East,91,3.0,4.0,87,0.00,,,0.01,meteohub,2013-03-18 14:21:00,
2013-03-19 04:27:00,35.4,32.0,30.31,East,90,3.0,4.0,87,0.00,,,0.01,meteohub,2013-03-18 14:27:00,
2013-03-19 04:32:00,35.4,32.2,30.31,East,90,2.0,4.0,88,0.00,,,0.01,meteohub,2013-03-18 14:32:00,
2013-03-19 04:37:00,35.6,31.8,30.31,East,90,0.0,4.0,86,0.00,,,0.01,meteohub,2013-03-18 14:37:00,
2013-03-19 04:42:00,36.0,31.6,30.31,East,89,1.0,3.0,84,0.00,,,0.01,meteohub,2013-03-18 14:42:00,
2013-03-19 04:48:00,36.3,32.0,30.31,East,86,1.0,2.0,84,0.00,,,0.01,meteohub,2013-03-18 14:48:00,
2013-03-19 04:53:00,36.7,32.0,30.31,East,86,0.0,1.0,83,0.00,,,0.01,meteohub,2013-03-18 14:53:00,
2013-03-19 04:58:00,36.9,32.5,30.32,East,87,0.0,1.0,84,0.00,,,0.01,meteohub,2013-03-18 14:58:00,
2013-03-19 05:03:00,36.9,32.2,30.32,East,86,0.0,1.0,83,0.00,,,0.01,meteohub,2013-03-18 15:03:00,
2013-03-19 05:09:00,37.0,32.4,30.32,East,86,0.0,1.0,83,0.00,,,0.01,meteohub,2013-03-18 15:09:00,
2013-03-19 05:14:00,37.0,32.0,30.32,East,86,0.0,1.0,82,0.00,,,0.01,meteohub,2013-03-18 15:14:00,
2013-03-19 05:19:00,37.2,32.2,30.32,East,86,0.0,1.0,82,0.00,,,0.01,meteohub,2013-03-18 15:19:00,
2013-03-19 05:24:00,37.4,32.2,30.32,East,86,0.0,1.0,81,0.00,,,0.01,meteohub,2013-03-18 15:24:00,
2013-03-19 05:30:00,37.8,32.5,30.32,East,87,0.0,1.0,81,0.00,,,0.01,meteohub,2013-03-18 15:30:00,
2013-03-19 05:35:00,37.8,32.5,30.32,East,86,0.0,1.0,81,0.00,,,0.01,meteohub,2013-03-18 15:35:00,
2013-03-19 05:40:00,37.4,32.2,30.32,East,86,0.0,0.0,81,0.00,,,0.01,meteohub,2013-03-18 15:40:00,
2013-03-19 05:45:00,37.4,32.2,30.32,East,86,0.0,0.0,81,0.00,,,0.01,meteohub,2013-03-18 15:45:00,
2013-03-19 05:51:00,37.6,32.4,30.32,East,87,0.0,0.0,81,0.00,,,0.01,meteohub,2013-03-18 15:51:00,
2013-03-19 05:56:00,38.1,32.5,30.32,East,86,0.0,0.0,80,0.00,,,0.01,meteohub,2013-03-18 15:56:00,
2013-03-19 06:01:00,38.5,32.5,30.32,SSE,167,0.0,0.0,79,0.00,,,0.01,meteohub,2013-03-18 16:01:00,
2013-03-19 06:06:00,38.5,32.9,30.32,SW,233,0.0,0.0,80,0.00,,,0.01,meteohub,2013-03-18 16:06:00,
2013-03-19 06:12:00,38.3,32.7,30.32,SW,233,1.0,1.0,80,0.00,,,0.01,meteohub,2013-03-18 16:12:00,
2013-03-19 06:17:00,37.9,32.4,30.32,WSW,250,1.0,1.0,80,0.00,,,0.01,meteohub,2013-03-18 16:17:00,
2013-03-19 06:22:00,37.8,32.5,30.32,West,264,1.0,2.0,81,0.00,,,0.01,meteohub,2013-03-18 16:22:00,
2013-03-19 06:27:00,37.6,32.4,30.33,West,271,2.0,2.0,81,0.00,,,0.01,meteohub,2013-03-18 16:27:00,
2013-03-19 06:32:00,37.6,32.4,30.33,West,259,1.0,2.0,81,0.00,,,0.01,meteohub,2013-03-18 16:32:00,
2013-03-19 06:37:00,37.4,32.2,30.33,WSW,254,1.0,2.0,81,0.00,,,0.01,meteohub,2013-03-18 16:37:00,
2013-03-19 06:42:00,37.6,33.3,30.33,SW,236,1.0,2.0,84,0.00,,,0.01,meteohub,2013-03-18 16:42:00,
2013-03-19 06:48:00,37.9,32.9,30.33,SW,235,0.0,2.0,82,0.00,,,0.01,meteohub,2013-03-18 16:48:00,
2013-03-19 06:53:00,38.1,33.8,30.33,WSW,251,0.0,2.0,84,0.00,,,0.01,meteohub,2013-03-18 16:53:00,
2013-03-19 06:58:00,38.5,33.8,30.33,SW,236,1.0,2.0,83,0.00,,,0.01,meteohub,2013-03-18 16:58:00,
2013-03-19 07:03:00,38.7,33.3,30.34,WSW,245,0.0,1.0,81,0.00,,,0.01,meteohub,2013-03-18 17:03:00,
2013-03-19 07:09:00,38.8,33.4,30.34,WSW,245,0.0,1.0,81,0.00,,,0.01,meteohub,2013-03-18 17:09:00,
2013-03-19 07:14:00,38.1,34.5,30.34,West,277,0.0,1.0,87,0.00,,,0.01,meteohub,2013-03-18 17:14:00,
2013-03-19 07:19:00,38.1,34.5,30.34,West,277,0.0,2.0,87,0.00,,,0.01,meteohub,2013-03-18 17:19:00,
2013-03-19 07:25:00,38.3,35.1,30.33,ENE,66,0.0,2.0,88,0.00,,,0.01,meteohub,2013-03-18 17:25:00,
2013-03-19 07:30:00,38.3,35.1,30.33,NE,46,1.0,2.0,88,0.00,,,0.01,meteohub,2013-03-18 17:30:00,
2013-03-19 07:35:00,37.9,35.1,30.33,NE,54,2.0,3.0,89,0.00,,,0.01,meteohub,2013-03-18 17:35:00,
2013-03-19 07:40:00,37.8,35.1,30.33,NE,38,0.0,3.0,90,0.00,,,0.01,meteohub,2013-03-18 17:40:00,
2013-03-19 07:46:00,37.8,34.5,30.33,NNE,29,1.0,3.0,88,0.00,,,0.01,meteohub,2013-03-18 17:46:00,
2013-03-19 07:51:00,37.9,35.8,30.33,ENE,64,0.0,3.0,92,0.00,,,0.01,meteohub,2013-03-18 17:51:00,
2013-03-19 07:56:00,37.9,34.2,30.33,WSW,250,0.0,4.0,86,0.00,,,0.01,meteohub,2013-03-18 17:56:00,
2013-03-19 08:01:00,38.7,35.1,30.33,WNW,284,5.0,6.0,87,0.00,,,0.01,meteohub,2013-03-18 18:01:00,
2013-03-19 08:07:00,38.8,34.2,30.33,NNW,341,1.0,7.0,83,0.00,,,0.01,meteohub,2013-03-18 18:07:00,
2013-03-19 08:12:00,38.3,33.3,30.33,NW,316,2.0,7.0,82,0.00,,,0.01,meteohub,2013-03-18 18:12:00,
2013-03-19 08:17:00,37.9,33.6,30.33,NW,314,2.0,7.0,84,0.00,,,0.01,meteohub,2013-03-18 18:17:00,
2013-03-19 08:22:00,37.9,32.9,30.34,NW,309,3.0,5.0,82,0.00,,,0.01,meteohub,2013-03-18 18:22:00,
2013-03-19 08:27:00,38.3,34.2,30.33,SW,223,0.0,4.0,85,0.00,,,0.01,meteohub,2013-03-18 18:27:00,
2013-03-19 08:32:00,38.5,34.7,30.33,West,274,3.0,4.0,86,0.00,,,0.01,meteohub,2013-03-18 18:32:00,
2013-03-19 08:37:00,39.6,35.4,30.33,South,190,1.0,4.0,85,0.00,,,0.01,meteohub,2013-03-18 18:37:00,
2013-03-19 08:42:00,39.9,35.2,30.33,WNW,285,2.0,8.0,83,0.00,,,0.01,meteohub,2013-03-18 18:42:00,
2013-03-19 08:47:00,40.5,36.3,30.33,WSW,256,3.0,8.0,85,0.00,,,0.01,meteohub,2013-03-18 18:47:00,
2013-03-19 08:53:00,40.5,35.8,30.33,NW,309,0.0,6.0,83,0.00,,,0.01,meteohub,2013-03-18 18:53:00,
2013-03-19 08:58:00,40.5,36.0,30.32,North,359,0.0,5.0,84,0.00,,,0.01,meteohub,2013-03-18 18:58:00,
2013-03-19 09:03:00,40.3,35.6,30.32,ENE,65,1.0,5.0,83,0.00,,,0.01,meteohub,2013-03-18 19:03:00,
2013-03-19 09:08:00,39.7,35.2,30.32,NNE,31,2.0,3.0,84,0.00,,,0.01,meteohub,2013-03-18 19:08:00,
2013-03-19 09:13:00,39.4,35.6,30.32,NE,37,2.0,4.0,86,0.00,,,0.01,meteohub,2013-03-18 19:13:00,
2013-03-19 09:19:00,39.6,35.8,30.31,NNW,330,1.0,4.0,86,0.00,,,0.01,meteohub,2013-03-18 19:19:00,
2013-03-19 09:24:00,40.1,35.6,30.32,North,6,2.0,4.0,84,0.00,,,0.01,meteohub,2013-03-18 19:24:00,
2013-03-19 09:29:00,40.3,36.1,30.32,NNW,333,2.0,5.0,85,0.00,,,0.01,meteohub,2013-03-18 19:29:00,
2013-03-19 09:34:00,40.3,35.8,30.32,NNW,329,3.0,7.0,84,0.00,,,0.01,meteohub,2013-03-18 19:34:00,
2013-03-19 09:40:00,40.1,36.0,30.31,NNW,348,3.0,7.0,85,0.00,,,0.01,meteohub,2013-03-18 19:40:00,
2013-03-19 09:45:00,40.5,36.0,30.31,NW,309,5.0,7.0,84,0.00,,,0.01,meteohub,2013-03-18 19:45:00,
2013-03-19 09:50:00,40.8,36.3,30.31,North,1,2.0,7.0,84,0.00,,,0.01,meteohub,2013-03-18 19:50:00,
2013-03-19 09:56:00,41.7,36.7,30.30,NNE,30,4.0,7.0,82,0.00,,,0.01,meteohub,2013-03-18 19:56:00,
2013-03-19 10:01:00,42.1,37.2,30.30,NE,46,1.0,7.0,83,0.00,,,0.01,meteohub,2013-03-18 20:01:00,
2013-03-19 10:07:00,42.4,37.6,30.30,North,356,7.0,7.0,83,0.00,,,0.01,meteohub,2013-03-18 20:07:00,
2013-03-19 10:12:00,43.2,37.4,30.30,NNW,338,0.0,8.0,80,0.00,,,0.01,meteohub,2013-03-18 20:12:00,
2013-03-19 10:17:00,43.7,34.5,30.30,North,354,4.0,8.0,70,0.00,,,0.01,meteohub,2013-03-18 20:17:00,
2013-03-19 10:23:00,43.9,34.0,30.30,NNE,17,4.0,9.0,68,0.00,,,0.01,meteohub,2013-03-18 20:23:00,
2013-03-19 10:28:00,43.9,35.1,30.30,NNW,330,3.0,9.0,71,0.00,,,0.01,meteohub,2013-03-18 20:28:00,
2013-03-19 10:33:00,43.7,33.8,30.30,ENE,58,9.0,9.0,68,0.00,,,0.01,meteohub,2013-03-18 20:33:00,
2013-03-19 10:39:00,43.7,35.2,30.30,NNE,21,0.0,11.0,72,0.00,,,0.01,meteohub,2013-03-18 20:39:00,
2013-03-19 10:44:00,44.8,37.0,30.30,NE,37,4.0,11.0,74,0.00,,,0.01,meteohub,2013-03-18 20:44:00,
2013-03-19 10:49:00,44.4,36.0,30.29,NNE,28,3.0,11.0,72,0.00,,,0.01,meteohub,2013-03-18 20:49:00,
2013-03-19 10:54:00,44.6,35.8,30.29,NE,48,6.0,9.0,71,0.00,,,0.01,meteohub,2013-03-18 20:54:00,
2013-03-19 10:59:00,44.2,36.1,30.29,NNE,25,3.0,9.0,73,0.00,,,0.01,meteohub,2013-03-18 20:59:00,
2013-03-19 11:04:00,44.8,36.3,30.29,NE,46,5.0,10.0,72,0.00,,,0.01,meteohub,2013-03-18 21:04:00,
2013-03-19 11:09:00,44.8,35.2,30.29,NNW,343,5.0,10.0,69,0.00,,,0.01,meteohub,2013-03-18 21:09:00,
2013-03-19 11:14:00,44.6,35.4,30.29,North,1,6.0,8.0,70,0.00,,,0.01,meteohub,2013-03-18 21:14:00,
2013-03-19 11:20:00,45.1,36.0,30.28,North,8,9.0,10.0,70,0.00,,,0.01,meteohub,2013-03-18 21:20:00,
2013-03-19 11:25:00,45.1,35.6,30.28,NNE,33,9.0,10.0,69,0.00,,,0.01,meteohub,2013-03-18 21:25:00,
2013-03-19 11:30:00,45.7,35.8,30.28,NE,51,3.0,10.0,68,0.00,,,0.01,meteohub,2013-03-18 21:30:00,
2013-03-19 11:35:00,45.1,35.6,30.27,North,6,5.0,10.0,69,0.00,,,0.01,meteohub,2013-03-18 21:35:00,
2013-03-19 11:41:00,45.3,36.1,30.27,North,357,4.0,10.0,70,0.00,,,0.01,meteohub,2013-03-18 21:41:00,
2013-03-19 11:46:00,45.1,34.9,30.27,North,6,6.0,10.0,67,0.00,,,0.01,meteohub,2013-03-18 21:46:00,
2013-03-19 11:51:00,44.8,34.9,30.27,NE,40,3.0,11.0,68,0.00,,,0.01,meteohub,2013-03-18 21:51:00,
2013-03-19 11:56:00,45.3,35.8,30.27,NNW,347,7.0,11.0,69,0.00,,,0.01,meteohub,2013-03-18 21:56:00,
2013-03-19 12:02:00,45.5,36.0,30.27,North,3,8.0,11.0,69,0.00,,,0.01,meteohub,2013-03-18 22:02:00,
2013-03-19 12:07:00,45.1,35.2,30.26,NE,37,5.0,12.0,68,0.00,,,0.01,meteohub,2013-03-18 22:07:00,
2013-03-19 12:12:00,45.5,36.0,30.26,NNE,30,10.0,12.0,69,0.00,,,0.01,meteohub,2013-03-18 22:12:00,
2013-03-19 12:18:00,45.9,35.1,30.26,NNE,27,7.0,12.0,66,0.00,,,0.01,meteohub,2013-03-18 22:18:00,
2013-03-19 12:23:00,45.9,35.6,30.26,NW,314,6.0,10.0,67,0.00,,,0.01,meteohub,2013-03-18 22:23:00,
2013-03-19 12:28:00,46.0,36.1,30.26,NW,323,7.0,11.0,68,0.00,,,0.01,meteohub,2013-03-18 22:28:00,
2013-03-19 12:33:00,46.2,36.0,30.26,NE,37,8.0,12.0,67,0.00,,,0.01,meteohub,2013-03-18 22:33:00,
2013-03-19 12:39:00,45.9,34.7,30.25,NNE,26,6.0,12.0,65,0.00,,,0.01,meteohub,2013-03-18 22:39:00,
2013-03-19 12:44:00,46.0,35.8,30.25,NE,37,7.0,11.0,67,0.00,,,0.01,meteohub,2013-03-18 22:44:00,
2013-03-19 12:49:00,46.0,35.8,30.25,NNE,24,4.0,12.0,67,0.00,,,0.01,meteohub,2013-03-18 22:49:00,
2013-03-19 12:54:00,46.0,34.5,30.25,NNE,13,11.0,13.0,64,0.00,,,0.01,meteohub,2013-03-18 22:54:00,
2013-03-19 13:00:00,46.0,35.2,30.25,NE,38,6.0,13.0,66,0.00,,,0.01,meteohub,2013-03-18 23:00:00,
2013-03-19 13:05:00,46.2,35.1,30.25,NNE,20,12.0,13.0,65,0.00,,,0.01,meteohub,2013-03-18 23:05:00,
2013-03-19 13:10:00,46.2,35.1,30.25,NNW,347,8.0,13.0,65,0.00,,,0.01,meteohub,2013-03-18 23:10:00,
2013-03-19 13:15:00,46.2,35.1,30.25,North,6,4.0,14.0,65,0.00,,,0.01,meteohub,2013-03-18 23:15:00,
2013-03-19 13:20:00,46.6,35.1,30.25,North,354,9.0,14.0,64,0.00,,,0.01,meteohub,2013-03-18 23:20:00,
2013-03-19 13:26:00,46.2,34.3,30.25,NNE,23,7.0,14.0,63,0.00,,,0.01,meteohub,2013-03-18 23:26:00,
2013-03-19 13:31:00,46.6,35.1,30.25,NNE,28,6.0,14.0,64,0.00,,,0.01,meteohub,2013-03-18 23:31:00,
2013-03-19 13:36:00,46.6,34.7,30.25,NNE,12,10.0,14.0,63,0.00,,,0.01,meteohub,2013-03-18 23:36:00,
2013-03-19 13:42:00,46.6,34.7,30.25,NNE,24,7.0,14.0,63,0.00,,,0.01,meteohub,2013-03-18 23:42:00,
2013-03-19 13:47:00,46.6,34.7,30.25,NNE,32,6.0,15.0,63,0.00,,,0.01,meteohub,2013-03-18 23:47:00,
2013-03-19 13:52:00,46.8,34.5,30.25,North,4,12.0,15.0,62,0.00,,,0.01,meteohub,2013-03-18 23:52:00,
2013-03-19 13:58:00,46.8,34.9,30.25,NNE,16,12.0,16.0,63,0.00,,,0.01,meteohub,2013-03-18 23:58:00,
2013-03-19 14:03:00,46.8,34.5,30.24,NNW,340,11.0,16.0,62,0.00,,,0.01,meteohub,2013-03-19 00:03:00,
2013-03-19 14:08:00,46.9,34.2,30.24,NNE,22,11.0,16.0,61,0.00,,,0.00,meteohub,2013-03-19 00:08:00,
2013-03-19 14:13:00,46.8,34.5,30.24,NNE,25,12.0,16.0,62,0.00,,,0.00,meteohub,2013-03-19 00:13:00,
2013-03-19 14:18:00,46.8,34.5,30.24,NNE,15,12.0,16.0,62,0.00,,,0.00,meteohub,2013-03-19 00:18:00,
2013-03-19 14:23:00,46.6,33.8,30.24,NNE,30,8.0,16.0,61,0.00,,,0.00,meteohub,2013-03-19 00:23:00,
2013-03-19 14:29:00,46.6,34.3,30.24,North,353,7.0,15.0,62,0.00,,,0.00,meteohub,2013-03-19 00:29:00,
2013-03-19 14:34:00,46.4,33.3,30.23,NE,44,9.0,15.0,60,0.00,,,0.00,meteohub,2013-03-19 00:34:00,
2013-03-19 14:39:00,46.0,33.3,30.23,NE,41,14.0,17.0,61,0.00,,,0.00,meteohub,2013-03-19 00:39:00,
2013-03-19 14:44:00,46.0,32.9,30.23,NE,36,8.0,18.0,60,0.00,,,0.00,meteohub,2013-03-19 00:44:00,
2013-03-19 14:49:00,46.0,32.9,30.23,NE,37,13.0,18.0,60,0.00,,,0.00,meteohub,2013-03-19 00:49:00,
2013-03-19 14:55:00,45.9,32.7,30.23,NE,52,13.0,18.0,60,0.00,,,0.00,meteohub,2013-03-19 00:55:00,
2013-03-19 15:00:00,45.9,32.7,30.23,NNE,31,11.0,17.0,60,0.00,,,0.00,meteohub,2013-03-19 01:00:00,
2013-03-19 15:05:00,45.7,33.4,30.22,NE,45,11.0,17.0,62,0.00,,,0.00,meteohub,2013-03-19 01:05:00,
2013-03-19 15:10:00,45.7,34.2,30.22,NNE,15,14.0,17.0,64,0.00,,,0.00,meteohub,2013-03-19 01:10:00,
2013-03-19 15:15:00,45.7,34.5,30.22,NE,40,15.0,17.0,65,0.00,,,0.00,meteohub,2013-03-19 01:15:00,
2013-03-19 15:20:00,45.5,34.3,30.22,NNE,19,13.0,17.0,65,0.00,,,0.00,meteohub,2013-03-19 01:20:00,
2013-03-19 15:25:00,45.3,35.1,30.21,NE,37,15.0,17.0,67,0.00,,,0.00,meteohub,2013-03-19 01:25:00,
2013-03-19 15:31:00,45.1,34.9,30.21,NNE,33,15.0,21.0,67,0.00,,,0.00,meteohub,2013-03-19 01:31:00,
2013-03-19 15:36:00,44.8,34.9,30.21,NE,44,18.0,22.0,68,0.00,,,0.00,meteohub,2013-03-19 01:36:00,
2013-03-19 15:42:00,44.6,34.7,30.21,NE,51,15.0,22.0,68,0.00,,,0.00,meteohub,2013-03-19 01:42:00,
2013-03-19 15:47:00,44.4,34.9,30.20,NE,51,13.0,23.0,69,0.00,,,0.00,meteohub,2013-03-19 01:47:00,
2013-03-19 15:52:00,44.2,34.3,30.20,NE,44,14.0,24.0,68,0.00,,,0.00,meteohub,2013-03-19 01:52:00,
2013-03-19 15:57:00,44.1,34.5,30.20,NE,51,16.0,24.0,69,0.00,,,0.00,meteohub,2013-03-19 01:57:00,
2013-03-19 16:02:00,44.1,34.5,30.20,NE,55,23.0,24.0,69,0.00,,,0.00,meteohub,2013-03-19 02:02:00,
2013-03-19 16:08:00,43.9,34.3,30.19,NE,41,18.0,25.0,69,0.00,,,0.00,meteohub,2013-03-19 02:08:00,
2013-03-19 16:13:00,43.7,34.2,30.19,NE,43,19.0,25.0,69,0.00,,,0.00,meteohub,2013-03-19 02:13:00,
2013-03-19 16:18:00,43.7,34.2,30.20,NE,40,17.0,25.0,69,0.00,,,0.00,meteohub,2013-03-19 02:18:00,
2013-03-19 16:24:00,43.7,33.8,30.19,NNE,28,16.0,23.0,68,0.00,,,0.00,meteohub,2013-03-19 02:24:00,
2013-03-19 16:29:00,43.5,33.6,30.20,NE,49,12.0,22.0,68,0.00,,,0.00,meteohub,2013-03-19 02:29:00,
2013-03-19 16:34:00,43.5,33.3,30.20,NE,46,19.0,22.0,67,0.00,,,0.00,meteohub,2013-03-19 02:34:00,
2013-03-19 16:39:00,43.5,33.3,30.20,ENE,57,15.0,23.0,67,0.00,,,0.00,meteohub,2013-03-19 02:39:00,
2013-03-19 16:45:00,43.3,33.1,30.20,NE,43,17.0,23.0,67,0.00,,,0.00,meteohub,2013-03-19 02:45:00,
2013-03-19 16:50:00,43.3,33.1,30.20,NE,52,14.0,23.0,67,0.00,,,0.00,meteohub,2013-03-19 02:50:00,
2013-03-19 16:55:00,43.3,32.7,30.20,NE,43,18.0,21.0,66,0.00,,,0.00,meteohub,2013-03-19 02:55:00,
2013-03-19 17:00:00,43.2,32.5,30.20,ENE,60,13.0,22.0,66,0.00,,,0.00,meteohub,2013-03-19 03:00:00,
2013-03-19 17:05:00,43.2,32.5,30.20,NE,37,19.0,23.0,66,0.00,,,0.00,meteohub,2013-03-19 03:05:00,
2013-03-19 17:10:00,43.2,32.5,30.20,NE,45,17.0,23.0,66,0.00,,,0.00,meteohub,2013-03-19 03:10:00,
2013-03-19 17:16:00,43.0,32.4,30.19,NE,51,19.0,24.0,66,0.00,,,0.00,meteohub,2013-03-19 03:16:00,
2013-03-19 17:21:00,43.0,32.4,30.19,NE,53,22.0,24.0,66,0.00,,,0.00,meteohub,2013-03-19 03:21:00,
2013-03-19 17:26:00,42.8,32.2,30.19,NE,52,21.0,24.0,66,0.00,,,0.00,meteohub,2013-03-19 03:26:00,
2013-03-19 17:31:00,42.6,32.0,30.19,NE,54,24.0,25.0,66,0.00,,,0.00,meteohub,2013-03-19 03:31:00,
2013-03-19 17:37:00,42.8,32.2,30.19,NE,55,23.0,26.0,66,0.00,,,0.00,meteohub,2013-03-19 03:37:00,
2013-03-19 17:42:00,42.6,32.4,30.19,ENE,58,18.0,26.0,67,0.00,,,0.00,meteohub,2013-03-19 03:42:00,
2013-03-19 17:47:00,42.6,32.0,30.19,NE,53,24.0,26.0,66,0.00,,,0.00,meteohub,2013-03-19 03:47:00,
2013-03-19 17:52:00,42.8,31.8,30.19,NE,55,25.0,27.0,65,0.00,,,0.00,meteohub,2013-03-19 03:52:00,
2013-03-19 17:57:00,42.6,32.0,30.19,NE,53,23.0,28.0,66,0.00,,,0.00,meteohub,2013-03-19 03:57:00,
2013-03-19 18:00:00,42.6,32.0,30.19,NE,53,20.0,28.0,66,0.00,,,0.00,meteohub,2013-03-19 04:00:00,
2013-03-19 18:01:00,42.6,32.0,30.19,NE,54,22.0,28.0,66,0.00,,,0.00,meteohub,2013-03-19 04:01:00,
2013-03-19 18:03:00,42.6,32.0,30.19,NE,51,21.0,28.0,66,0.00,,,0.00,meteohub,2013-03-19 04:03:00,
2013-03-19 18:08:00,42.6,32.0,30.19,NE,52,20.0,28.0,66,0.00,,,0.00,meteohub,2013-03-19 04:08:00,
2013-03-19 18:13:00,42.4,32.2,30.19,NE,56,21.0,25.0,67,0.00,,,0.00,meteohub,2013-03-19 04:13:00,
2013-03-19 18:18:00,42.4,32.2,30.19,NE,49,21.0,25.0,67,0.00,,,0.00,meteohub,2013-03-19 04:18:00,
2013-03-19 18:23:00,42.3,32.5,30.19,ENE,57,21.0,26.0,68,0.00,,,0.00,meteohub,2013-03-19 04:23:00,
2013-03-19 18:29:00,42.3,32.9,30.19,NE,52,19.0,26.0,69,0.00,,,0.00,meteohub,2013-03-19 04:29:00,
2013-03-19 18:34:00,42.1,33.1,30.19,ENE,59,17.0,26.0,70,0.00,,,0.00,meteohub,2013-03-19 04:34:00,
2013-03-19 18:39:00,41.9,33.3,30.18,NE,56,15.0,23.0,71,0.00,,,0.00,meteohub,2013-03-19 04:39:00,
2013-03-19 18:45:00,41.5,32.9,30.18,ENE,58,18.0,21.0,71,0.00,,,0.00,meteohub,2013-03-19 04:45:00,
2013-03-19 18:50:00,41.5,33.3,30.18,NE,56,17.0,21.0,72,0.00,,,0.00,meteohub,2013-03-19 04:50:00,
2013-03-19 18:55:00,41.5,33.3,30.18,ENE,60,16.0,21.0,72,0.00,,,0.00,meteohub,2013-03-19 04:55:00,
2013-03-19 19:00:00,41.5,33.6,30.17,ENE,57,17.0,20.0,73,0.00,,,0.00,meteohub,2013-03-19 05:00:00,
2013-03-19 19:05:00,41.7,33.6,30.17,ENE,59,16.0,18.0,73,0.00,,,0.00,meteohub,2013-03-19 05:05:00,
2013-03-19 19:10:00,41.5,33.8,30.17,ENE,60,14.0,18.0,74,0.00,,,0.00,meteohub,2013-03-19 05:10:00,
2013-03-19 19:15:00,41.7,34.0,30.17,ENE,60,13.0,18.0,74,0.00,,,0.00,meteohub,2013-03-19 05:15:00,
2013-03-19 19:20:00,42.1,34.0,30.17,ENE,59,12.0,16.0,73,0.00,,,0.00,meteohub,2013-03-19 05:20:00,
2013-03-19 19:26:00,42.1,34.0,30.17,ENE,58,12.0,15.0,73,0.00,,,0.00,meteohub,2013-03-19 05:26:00,
2013-03-19 19:31:00,42.1,33.8,30.17,ENE,57,11.0,13.0,72,0.00,,,0.00,meteohub,2013-03-19 05:31:00,
2013-03-19 19:36:00,42.6,33.8,30.17,NE,56,12.0,13.0,71,0.00,,,0.00,meteohub,2013-03-19 05:36:00,
2013-03-19 19:41:00,43.2,34.0,30.17,NE,56,12.0,13.0,70,0.00,,,0.00,meteohub,2013-03-19 05:41:00,
2013-03-19 19:46:00,43.0,33.8,30.17,NE,56,11.0,13.0,70,0.00,,,0.00,meteohub,2013-03-19 05:46:00,
2013-03-19 19:52:00,43.0,33.8,30.17,ENE,58,10.0,13.0,70,0.00,,,0.00,meteohub,2013-03-19 05:52:00,
2013-03-19 19:57:00,42.8,34.0,30.17,ENE,58,10.0,12.0,71,0.00,,,0.00,meteohub,2013-03-19 05:57:00,
2013-03-19 20:02:00,43.0,34.2,30.17,ENE,60,9.0,12.0,71,0.00,,,0.00,meteohub,2013-03-19 06:02:00,
2013-03-19 20:07:00,42.8,34.0,30.17,ENE,70,7.0,12.0,71,0.00,,,0.00,meteohub,2013-03-19 06:07:00,
2013-03-19 20:13:00,43.0,34.2,30.17,East,84,5.0,12.0,71,0.00,,,0.00,meteohub,2013-03-19 06:13:00,
2013-03-19 20:18:00,43.2,34.0,30.17,ENE,72,4.0,12.0,70,0.00,,,0.00,meteohub,2013-03-19 06:18:00,
2013-03-19 20:23:00,43.2,34.0,30.17,ENE,74,3.0,9.0,70,0.00,,,0.00,meteohub,2013-03-19 06:23:00,
2013-03-19 20:28:00,43.0,33.8,30.17,ENE,63,2.0,6.0,70,0.00,,,0.00,meteohub,2013-03-19 06:28:00,
2013-03-19 20:33:00,42.6,33.8,30.16,ENE,65,3.0,4.0,71,0.00,,,0.00,meteohub,2013-03-19 06:33:00,
2013-03-19 20:38:00,42.6,33.8,30.16,ENE,64,4.0,4.0,71,0.00,,,0.00,meteohub,2013-03-19 06:38:00,
2013-03-19 20:43:00,43.0,33.8,30.16,NE,53,5.0,5.0,70,0.00,,,0.00,meteohub,2013-03-19 06:43:00,
2013-03-19 20:48:00,43.2,33.6,30.16,North,11,5.0,9.0,69,0.00,,,0.00,meteohub,2013-03-19 06:48:00,
2013-03-19 20:54:00,42.8,33.3,30.16,NE,49,6.0,9.0,69,0.00,,,0.00,meteohub,2013-03-19 06:54:00,
2013-03-19 20:59:00,43.0,33.1,30.16,NE,39,3.0,9.0,68,0.00,,,0.00,meteohub,2013-03-19 06:59:00,
2013-03-19 21:04:00,42.8,33.3,30.15,NNE,15,7.0,9.0,69,0.00,,,0.00,meteohub,2013-03-19 07:04:00,
2013-03-19 21:09:00,42.6,33.1,30.15,NE,51,4.0,7.0,69,0.00,,,0.00,meteohub,2013-03-19 07:09:00,
2013-03-19 21:15:00,42.4,33.1,30.15,NE,35,5.0,8.0,69,0.00,,,0.00,meteohub,2013-03-19 07:15:00,
2013-03-19 21:20:00,42.4,32.7,30.15,North,11,2.0,8.0,68,0.00,,,0.00,meteohub,2013-03-19 07:20:00,
2013-03-19 21:25:00,42.3,32.9,30.14,North,353,2.0,7.0,69,0.00,,,0.00,meteohub,2013-03-19 07:25:00,
2013-03-19 21:30:00,42.1,33.1,30.14,NW,322,2.0,7.0,70,0.00,,,0.00,meteohub,2013-03-19 07:30:00,
2013-03-19 21:36:00,41.9,33.3,30.14,NW,311,4.0,5.0,71,0.00,,,0.00,meteohub,2013-03-19 07:36:00,
2013-03-19 21:41:00,41.4,33.1,30.14,North,354,7.0,7.0,72,0.00,,,0.00,meteohub,2013-03-19 07:41:00,
2013-03-19 21:46:00,40.6,33.3,30.14,NNE,13,8.0,8.0,75,0.00,,,0.00,meteohub,2013-03-19 07:46:00,
2013-03-19 21:51:00,39.9,33.3,30.14,North,352,10.0,10.0,77,0.00,,,0.00,meteohub,2013-03-19 07:51:00,
2013-03-19 21:56:00,39.6,32.9,30.13,North,0,12.0,12.0,77,0.00,,,0.00,meteohub,2013-03-19 07:56:00,
2013-03-19 22:02:00,39.4,32.7,30.13,North,11,10.0,12.0,77,0.00,,,0.00,meteohub,2013-03-19 08:02:00,
2013-03-19 22:07:00,39.2,32.5,30.13,North,4,14.0,14.0,77,0.00,,,0.00,meteohub,2013-03-19 08:07:00,
2013-03-19 22:12:00,38.7,33.1,30.13,North,11,16.0,16.0,80,0.00,,,0.00,meteohub,2013-03-19 08:12:00,
2013-03-19 22:17:00,37.9,33.3,30.12,NNE,19,14.0,17.0,83,0.00,,,0.00,meteohub,2013-03-19 08:17:00,
2013-03-19 22:22:00,37.6,33.3,30.12,NNE,20,16.0,17.0,84,0.00,,,0.00,meteohub,2013-03-19 08:22:00,
2013-03-19 22:27:00,37.2,33.1,30.12,NNE,20,13.0,17.0,85,0.00,,,0.00,meteohub,2013-03-19 08:27:00,
2013-03-19 22:33:00,36.7,33.3,30.12,NNE,32,13.0,17.0,87,0.00,,,0.00,meteohub,2013-03-19 08:33:00,
2013-03-19 22:38:00,36.5,33.3,30.12,NNE,28,10.0,17.0,88,0.00,,,0.00,meteohub,2013-03-19 08:38:00,
2013-03-19 22:43:00,36.5,33.3,30.12,NNE,23,6.0,15.0,88,0.00,,,0.00,meteohub,2013-03-19 08:43:00,
2013-03-19 22:48:00,36.9,33.4,30.12,NNE,18,10.0,14.0,87,0.00,,,0.00,meteohub,2013-03-19 08:48:00,
2013-03-19 22:53:00,37.2,32.9,30.12,NNE,22,10.0,12.0,84,0.00,,,0.00,meteohub,2013-03-19 08:53:00,
2013-03-19 22:58:00,37.9,33.3,30.12,NE,42,8.0,11.0,83,0.00,,,0.00,meteohub,2013-03-19 08:58:00,
2013-03-19 23:04:00,37.9,32.9,30.12,NE,46,9.0,11.0,82,0.00,,,0.00,meteohub,2013-03-19 09:04:00,
2013-03-19 23:09:00,38.8,32.9,30.12,NE,44,7.0,11.0,79,0.00,,,0.00,meteohub,2013-03-19 09:09:00,
2013-03-19 23:14:00,39.0,33.1,30.12,NE,44,7.0,10.0,79,0.00,,,0.00,meteohub,2013-03-19 09:14:00,
2013-03-19 23:19:00,38.8,33.3,30.12,NE,41,7.0,10.0,80,0.00,,,0.00,meteohub,2013-03-19 09:19:00,
2013-03-19 23:24:00,38.7,33.3,30.12,NE,44,6.0,9.0,81,0.00,,,0.00,meteohub,2013-03-19 09:24:00,
2013-03-19 23:29:00,38.5,33.4,30.12,NE,44,3.0,9.0,82,0.00,,,0.00,meteohub,2013-03-19 09:29:00,
2013-03-19 23:35:00,38.5,33.1,30.11,NE,35,4.0,9.0,81,0.00,,,0.00,meteohub,2013-03-19 09:35:00,
2013-03-19 23:40:00,38.7,32.7,30.12,NNE,25,5.0,7.0,79,0.00,,,0.00,meteohub,2013-03-19 09:40:00,
2013-03-19 23:45:00,38.5,33.1,30.12,NNE,33,5.0,7.0,81,0.00,,,0.00,meteohub,2013-03-19 09:45:00,
2013-03-19 23:51:00,38.3,32.9,30.12,NNE,23,2.0,6.0,81,0.00,,,0.00,meteohub,2013-03-19 09:51:00,
2013-03-19 23:56:00,38.3,33.3,30.12,NNE,15,3.0,6.0,82,0.00,,,0.00,meteohub,2013-03-19 09:56:00,